Location: La Fredeussais
(48.1780°N, 1.3980°W)
Time: 16:42:17
(UTC+00:00)

SPOT 1/Viking Rocket - Pass Details

Date: 09 May 2021
Orbit: 776 x 794 km, 98.4° (Epoch: 23 June)

Event Time Altitude Azimuth Distance (km) Brightness Sun altitude
Exits shadow 20:45:30 13° 151° (SSE) 2,151 5.2 -11.0°
Maximum altitude 20:50:07 65° 72° (ENE) 867 3.7 -11.6°
Drops below altitude 10° 20:55:17 10° 351° (N) 2,361 6.9 -12.2°
Sets 20:57:37 0° 349° (NNW) 3,292 7.8 -12.4°
